Location: Bonny Doon Airfield
(37.0704°N, 122.1252°W)
Time: 14:30:47
(UTC-07:00)

Tiangong 1 - Pass Details

Date: 10 October 2017
Orbit: 292 x 320 km, 42.8° (Epoch: 21 October)

Event Time Altitude Azimuth Distance (km) Brightness Sun altitude
Rises 19:21:10 0° 286° (WNW) 2,042 6.4 -9.4°
Reaches altitude 10° 19:23:24 10° 302° (WNW) 1,206 4.5 -9.8°
Maximum altitude 19:25:38 22° 358° (N) 732 2.5 -10.3°
Enters shadow 19:27:27 13° 48° (NE) 1,064 2.9 -10.6°
